Weather History for EGNH - March, 2013

Change the Weather History Date:

Saturday, March 2, 2013

  Actual Average Record
Temperature  
Mean Temperature 35 °F -  
Max Temperature 44 °F 47 °F 57 °F (2012)
Min Temperature 26 °F 38 °F 21 °F (2004)
Degree Days  
Heating Degree Days 30    
Moisture  
Dew Point 36 °F    
Average Humidity 88    
Maximum Humidity 100    
Minimum Humidity 73    
Precipitation  
Precipitation 0.00 in - - ()
Sea Level Pressure  
Sea Level Pressure 30.34 in    
Wind  
Wind Speed 3 mph ()    
Max Wind Speed 7 mph    
Max Gust Speed -    
Visibility 6.2 miles    
Events Fog    
Averages and records for this station are not official NWS values.
T = Trace of Precipitation, MM = Missing Value Source: Averaged Metar Reports

Daily Weather History Graph

Daily Weather History Graph

Search for Another Location

Airport or City:

Trip Planner

Search our weather history database for the weather conditions in past years. The results will help you decide how hot, cold, wet, or windy it might be!

Date:

Astronomy

Mar. 02, 2013 Rise Set
Actual Time 6:57 AM GMT 5:51 PM GMT
Civil Twilight 6:22 AM GMT 6:27 PM GMT
Nautical Twilight 5:41 AM GMT 7:07 PM GMT
Astronomical Twilight 5:00 AM GMT 7:48 PM GMT
Moon No Moon Rise 8:25 AM GMT (3/2)
Length of Visible Light 12h 04m
Length of Day
10h 53m
Waning Gibbous, 76% of the Moon is Illuminated
Mar 2
Waning Gibbous
Mar 4
Last Quarter
Mar 11
New
Mar 19
First Quarter
Mar 27
Full

Hourly Weather History & Observations

Time (GMT) Temp. Windchill Dew Point Humidity Pressure Visibility Wind Dir Wind Speed Gust Speed Precip Events Conditions
2:50 AM 28 °F - 26 °F 89%  in - NE 2.3 mph - -  
5:50 AM 26 °F - 25 °F 95%  in - East 3.5 mph - -  
6:20 AM 26.6 °F - 26.6 °F 100% 30.39 in - ESE 2.3 mph - N/A   Clear
6:50 AM 26.6 °F - 24.8 °F 93% 30.39 in 6.2 mi SE 2.3 mph - N/A Fog Shallow Fog
7:20 AM 26.6 °F - 26.6 °F 100% 30.39 in - SE 2.3 mph - N/A   Clear
7:50 AM 28.4 °F - 26.6 °F 93% 30.39 in - SE 2.3 mph - N/A   Clear
8:20 AM 30.2 °F - 28.4 °F 93% 30.39 in 6.2 mi SSE 2.3 mph - N/A   Partly Cloudy
8:50 AM 35 °F - 33 °F 87%  in - ESE 1.2 mph - -  
8:50 AM 33.8 °F - 33.8 °F 100% 30.39 in 6.2 mi Calm Calm - N/A   Partly Cloudy
9:20 AM 37.4 °F - 37.4 °F 100% 30.39 in 6.2 mi Calm Calm - N/A   Partly Cloudy
10:20 AM 41.0 °F - 37.4 °F 87% 30.39 in 6.2 mi Variable 2.3 mph - N/A   Partly Cloudy
10:50 AM 42.8 °F 40.1 °F 37.4 °F 81% 30.36 in 6.2 mi SW 4.6 mph - N/A   Partly Cloudy
11:20 AM 44.6 °F 41.4 °F 37.4 °F 76% 30.36 in 6.2 mi West 5.8 mph - N/A   Partly Cloudy
11:50 AM 43 °F - 37 °F 73%  in - WSW 6.9 mph - -  
11:50 AM 44.6 °F 42.2 °F 39.2 °F 81% 30.36 in 6.2 mi West 4.6 mph - N/A   Scattered Clouds
12:20 PM 42.8 °F 39.3 °F 39.2 °F 87% 30.36 in 6.2 mi West 5.8 mph - N/A   Mostly Cloudy
12:50 PM 42.8 °F 39.3 °F 37.4 °F 81% 30.36 in 6.2 mi WNW 5.8 mph - N/A   Mostly Cloudy
1:20 PM 44.6 °F 41.4 °F 37.4 °F 76% 30.33 in 6.2 mi West 5.8 mph - N/A   Mostly Cloudy
1:50 PM 44.6 °F 40.7 °F 37.4 °F 76% 30.33 in 6.2 mi West 6.9 mph - N/A   Scattered Clouds
2:20 PM 44.6 °F 41.4 °F 39.2 °F 81% 30.33 in 6.2 mi West 5.8 mph - N/A   Mostly Cloudy
2:50 PM 44 °F - 39 °F 76%  in - WNW 6.9 mph - -  
2:50 PM 44.6 °F 41.4 °F 39.2 °F 81% 30.33 in 6.2 mi NW 5.8 mph - N/A   Mostly Cloudy
3:20 PM 44.6 °F 42.2 °F 39.2 °F 81% 30.30 in 6.2 mi NW 4.6 mph - N/A   Scattered Clouds
3:50 PM 44.6 °F 41.4 °F 39.2 °F 81% 30.30 in 6.2 mi NW 5.8 mph - N/A   Mostly Cloudy
4:20 PM 42.8 °F 39.3 °F 39.2 °F 87% 30.30 in 6.2 mi WNW 5.8 mph - N/A   Mostly Cloudy
4:50 PM 42.8 °F 40.1 °F 39.2 °F 87% 30.30 in 6.2 mi West 4.6 mph - N/A   Mostly Cloudy
5:20 PM 42.8 °F 39.3 °F 41.0 °F 93% 30.30 in 6.2 mi WNW 5.8 mph - N/A   Mostly Cloudy
5:50 PM 42 °F - 39 °F 87%  in - West 5.8 mph - -  
5:50 PM 42.8 °F 39.3 °F 39.2 °F 87% 30.30 in 6.2 mi WNW 5.8 mph - N/A   Overcast
6:20 PM 42.8 °F 40.1 °F 41.0 °F 93% 30.30 in 6.2 mi West 4.6 mph - N/A   Mostly Cloudy
6:50 PM 42.8 °F 40.1 °F 41.0 °F 93% 30.30 in 6.2 mi NW 4.6 mph - N/A   Mostly Cloudy
7:20 PM 42.8 °F - 41.0 °F 93% 30.30 in 6.2 mi Variable 2.3 mph - N/A   Overcast
7:50 PM 42.8 °F 40.1 °F 41.0 °F 93% 30.30 in 6.2 mi NW 4.6 mph - N/A   Mostly Cloudy
8:20 PM 42.8 °F 39.3 °F 41.0 °F 93% 30.30 in 6.2 mi NW 5.8 mph - N/A   Overcast
8:50 PM 42 °F - 40 °F 88%  in - NNE 2.3 mph - -  
11:50 PM 36 °F - 35 °F 96%  in - SE 1.2 mph - -